TimeEEST,TemperatureF,Dew PointF,Humidity,Sea Level PressureIn,VisibilityMPH,Wind Direction,Wind SpeedMPH,Gust SpeedMPH,PrecipitationIn,Events,Conditions,WindDirDegrees,DateUTC
12:20 AM,62.6,51.8,68,30.06,-9999.0,East,6.9,-,N/A,,Clear,100,2012-10-06 21:20:00
12:50 AM,62.6,51.8,68,30.06,-9999.0,ESE,6.9,-,N/A,,Clear,110,2012-10-06 21:50:00
1:20 AM,62.6,51.8,68,30.06,-9999.0,ESE,5.8,-,N/A,,Clear,120,2012-10-06 22:20:00
2:20 AM,60.8,51.8,72,30.06,-9999.0,ESE,5.8,-,N/A,,Clear,120,2012-10-06 23:20:00
3:00 AM,60,51,65,30.07,6,SE,4.6,,,,,130,2012-10-07 00:00:00
3:20 AM,59.0,51.8,77,30.04,-9999.0,ESE,5.8,-,N/A,,Clear,110,2012-10-07 00:20:00
3:50 AM,59.0,51.8,77,30.04,-9999.0,ESE,5.8,-,N/A,,Clear,120,2012-10-07 00:50:00
4:20 AM,59.0,51.8,77,30.04,-9999.0,ESE,4.6,-,N/A,,Clear,120,2012-10-07 01:20:00
4:50 AM,59.0,51.8,77,30.04,-9999.0,Variable,2.3,-,N/A,,Clear,0,2012-10-07 01:50:00
5:20 AM,59.0,51.8,77,30.04,-9999.0,Variable,2.3,-,N/A,,Clear,0,2012-10-07 02:20:00
5:50 AM,57.2,50.0,77,30.04,-9999.0,Variable,3.5,-,N/A,,Clear,0,2012-10-07 02:50:00
6:20 AM,57.2,50.0,77,30.04,-9999.0,ESE,5.8,-,N/A,,Clear,120,2012-10-07 03:20:00
6:50 AM,57.2,50.0,77,30.04,-9999.0,ESE,5.8,-,N/A,,Clear,120,2012-10-07 03:50:00
7:20 AM,57.2,50.0,77,30.01,-9999.0,ESE,5.8,-,N/A,,Clear,120,2012-10-07 04:20:00
7:50 AM,59.0,50.0,72,30.01,-9999.0,Variable,3.5,-,N/A,,Clear,0,2012-10-07 04:50:00
8:20 AM,59.0,51.8,77,30.04,-9999.0,Variable,3.5,-,N/A,,Clear,0,2012-10-07 05:20:00
8:50 AM,60.8,51.8,72,30.04,-9999.0,Variable,2.3,-,N/A,,Clear,0,2012-10-07 05:50:00
9:00 AM,62,53,63,30.04,6,,2.3,,,,,,2012-10-07 06:00:00
9:20 AM,66.2,57.2,73,30.04,-9999.0,Variable,1.2,-,N/A,,Clear,0,2012-10-07 06:20:00
9:50 AM,68.0,59.0,73,30.04,-9999.0,Variable,1.2,-,N/A,,Clear,0,2012-10-07 06:50:00
10:20 AM,69.8,59.0,68,30.04,-9999.0,Variable,2.3,-,N/A,,Clear,0,2012-10-07 07:20:00
10:50 AM,69.8,60.8,73,30.01,-9999.0,Variable,3.5,-,N/A,,Clear,0,2012-10-07 07:50:00
11:20 AM,69.8,60.8,73,30.01,-9999.0,Variable,3.5,-,N/A,,Clear,0,2012-10-07 08:20:00
11:50 AM,71.6,60.8,69,30.01,-9999.0,WNW,4.6,-,N/A,,Clear,300,2012-10-07 08:50:00
12:20 PM,71.6,59.0,64,30.01,-9999.0,WNW,5.8,-,N/A,,Clear,300,2012-10-07 09:20:00
12:50 PM,73.4,59.0,61,29.98,-9999.0,WNW,4.6,-,N/A,,Clear,300,2012-10-07 09:50:00
1:20 PM,75.2,59.0,57,29.98,-9999.0,WNW,5.8,-,N/A,,Clear,300,2012-10-07 10:20:00
1:50 PM,75.2,57.2,53,29.98,-9999.0,NW,5.8,-,N/A,,Clear,310,2012-10-07 10:50:00
2:50 PM,77.0,57.2,50,29.95,-9999.0,NW,6.9,-,N/A,,Clear,310,2012-10-07 11:50:00
3:00 PM,77,56,38,29.95,6,NW,6.9,,,,,310,2012-10-07 12:00:00
3:20 PM,77.0,57.2,50,29.92,-9999.0,NW,6.9,-,N/A,,Clear,310,2012-10-07 12:20:00
3:50 PM,78.8,55.4,44,29.92,-9999.0,NW,6.9,-,N/A,,Clear,310,2012-10-07 12:50:00
4:20 PM,78.8,59.0,51,29.89,-9999.0,NW,6.9,-,N/A,,Clear,310,2012-10-07 13:20:00
4:50 PM,78.8,46.4,32,29.89,-9999.0,SSW,11.5,-,N/A,,Clear,200,2012-10-07 13:50:00
5:20 PM,78.8,46.4,32,29.86,-9999.0,SSW,11.5,-,N/A,,Clear,200,2012-10-07 14:20:00
5:50 PM,78.8,48.2,34,29.86,-9999.0,South,11.5,-,N/A,,Clear,180,2012-10-07 14:50:00
6:20 PM,78.8,46.4,32,29.86,-9999.0,South,11.5,-,N/A,,Clear,180,2012-10-07 15:20:00
6:50 PM,77.0,48.2,36,29.86,-9999.0,South,11.5,-,N/A,,Clear,180,2012-10-07 15:50:00
7:20 PM,75.2,48.2,38,29.86,-9999.0,South,5.8,-,N/A,,Clear,180,2012-10-07 16:20:00
7:50 PM,75.2,48.2,38,29.86,-9999.0,SE,4.6,-,N/A,,Clear,130,2012-10-07 16:50:00
8:20 PM,73.4,53.6,50,29.86,-9999.0,ESE,5.8,-,N/A,,Clear,120,2012-10-07 17:20:00
8:50 PM,71.6,57.2,60,29.86,-9999.0,Calm,Calm,-,N/A,,Clear,0,2012-10-07 17:50:00
9:00 PM,72,56,48,29.87,6,Calm,Calm,,,,Clear,,2012-10-07 18:00:00
9:20 PM,69.8,57.2,64,29.86,-9999.0,Calm,Calm,-,N/A,,Clear,0,2012-10-07 18:20:00
9:50 PM,66.2,53.6,64,29.86,-9999.0,WNW,4.6,-,N/A,,Clear,300,2012-10-07 18:50:00
10:20 PM,66.2,53.6,64,29.86,-9999.0,Variable,3.5,-,N/A,,Clear,0,2012-10-07 19:20:00
10:50 PM,66.2,51.8,60,29.86,-9999.0,ESE,4.6,-,N/A,,Clear,120,2012-10-07 19:50:00
11:20 PM,64.4,53.6,68,29.86,-9999.0,Variable,3.5,-,N/A,,Clear,0,2012-10-07 20:20:00
11:50 PM,64.4,53.6,68,29.86,-9999.0,Variable,1.2,-,N/A,,Clear,0,2012-10-07 20:50:00